Vorticity
9 8 7 8 10 12 14 17 21 26 31 38 42 42 41 38 34 31 29 27 28 32 37 42 43 39 30 16 7 2 -2 -6 -16 -23 -26 -23 6 26 38 38 36 38 41 45 35 24 18 19 22 19 13 6 -2 -1 3 8 7 8 10 10 10 9 9 10 11 12 13 14 15
7 6 5 4 5 5 6 7 7 7 8 13 22 30 36 40 40 38 34 29 28 31 37 43 46 46 42 34 23 15 7 -1 -6 -7 -5 -2 13 22 27 29 39 48 52 47 31 19 11 8 12 14 14 11 3 -1 1 8 11 13 14 13 12 10 10 10 11 11 12 13 13
6 5 4 3 3 3 4 5 5 4 5 9 16 24 32 39 42 41 37 31 30 34 41 46 45 44 44 44 41 36 31 28 31 31 25 10 6 6 8 9 21 32 36 26 12 4 2 5 12 18 20 19 11 6 5 9 13 15 15 14 12 12 14 17 15 12 11 12 13
7 6 6 5 5 4 4 4 4 5 7 9 12 15 20 26 32 35 36 33 32 33 33 30 29 33 39 48 56 61 64 67 61 46 25 3 -3 -3 -3 -10 -5 4 8 -0 -7 -7 -3 4 13 20 23 21 18 14 11 10 10 10 10 9 15 22 29 30 20 15 13 13 14
4 5 6 9 11 10 8 4 2 2 3 4 4 6 8 11 15 19 24 29 30 28 23 15 10 10 18 32 45 53 54 44 26 17 14 16 18 17 10 -6 -12 -8 -2 -0 -3 -3 0 6 12 14 13 10 13 15 13 5 1 1 4 9 24 34 36 28 20 21 22 17 13
2 4 8 15 20 20 16 7 2 0 0 -0 -1 0 2 4 3 5 9 14 19 23 24 24 18 14 13 19 27 26 16 -2 0 12 26 36 38 35 26 9 -6 -13 -13 -3 14 24 27 21 8 -2 -9 -9 -2 5 7 3 -3 -3 3 14 26 27 20 7 12 21 27 22 12
5 8 12 16 17 17 14 9 6 4 3 2 -0 1 3 6 10 14 16 17 20 24 29 36 40 42 42 42 34 17 -0 -8 3 9 12 13 14 13 10 6 3 -0 -1 2 22 32 30 16 2 -6 -8 -4 -1 1 3 5 4 3 5 12 12 6 -3 -10 4 17 22 14 5
6 7 10 12 11 12 11 9 9 10 12 11 10 10 10 12 12 13 14 13 14 15 18 24 34 45 53 56 40 16 -4 -8 -5 -4 -4 -2 -1 1 4 10 18 21 20 14 14 10 3 -3 6 15 22 26 20 14 10 10 10 10 8 6 2 -4 -8 -8 5 15 18 11 3
4 2 3 6 8 9 9 7 8 12 19 25 26 27 26 20 8 2 -0 1 3 5 7 10 16 22 27 29 18 7 -1 -3 -1 1 4 7 6 8 14 23 33 37 35 26 11 -3 -10 -4 8 17 24 28 26 22 18 15 15 14 13 11 9 7 6 8 13 14 12 5 -2
2 2 2 2 3 5 5 4 2 5 12 23 30 32 27 15 6 3 4 9 11 14 15 16 14 12 9 4 0 3 8 12 15 17 18 17 15 19 24 32 31 25 16 6 -1 -3 0 7 11 13 15 18 22 21 18 15 16 17 18 18 19 20 20 18 17 13 8 2 -2
0 -0 1 3 3 3 2 2 2 2 4 8 17 21 20 13 12 13 14 15 18 22 26 29 26 21 12 -1 -4 1 10 18 27 33 36 33 28 22 14 2 -10 -15 -14 -7 2 7 9 9 10 12 14 16 19 20 19 17 21 23 22 19 22 25 27 26 22 18 13 8 6
2 0 1 4 4 4 4 3 3 6 11 18 24 25 22 18 14 9 4 3 2 8 18 34 38 30 13 -7 -10 -7 -1 5 14 22 26 24 13 -3 -20 -34 -31 -20 -4 10 13 14 13 7 8 11 14 17 21 23 24 24 26 26 23 19 19 23 28 35 31 26 21 17 12
7 5 5 7 8 9 8 7 9 15 22 26 22 17 10 1 -10 -16 -16 -12 -13 -11 -6 5 11 5 -8 -22 -19 -13 -7 -3 -3 -4 -6 -10 -16 -21 -23 -19 -7 6 17 24 20 17 13 8 7 9 12 17 24 30 34 34 28 21 17 17 18 21 25 31 26 19 13 10 6
11 8 6 6 8 9 9 9 11 12 10 2 -10 -17 -22 -28 -33 -31 -24 -15 -11 -9 -8 -8 -7 -9 -12 -14 -7 1 7 10 10 8 6 5 7 10 13 18 22 25 27 27 22 18 14 10 7 6 8 13 27 36 40 36 25 16 10 9 10 11 11 9 0 -7 -12 -13 -10
12 8 4 2 5 5 4 4 3 -2 -10 -21 -26 -24 -18 -10 -4 0 3 4 2 1 1 4 8 11 13 14 16 18 18 19 18 18 19 19 20 20 20 20 21 22 23 23 21 19 16 13 9 4 3 8 23 28 25 17 13 10 7 4 2 -0 -4 -10 -18 -22 -21 -17 -6
9 6 3 0 1 -0 -2 -2 -0 -1 -3 -5 -1 4 11 16 19 20 20 16 12 10 11 16 22 26 26 24 21 18 15 13 13 13 14 16 16 16 15 15 16 18 20 20 20 18 17 14 11 8 6 9 16 12 3 -5 -6 -7 -6 -4 2 6 6 2 0 2 5 11 16
5 4 2 0 -1 -0 0 2 4 6 8 9 10 13 15 17 19 20 22 21 19 18 18 20 22 22 21 18 15 11 8 7 7 8 11 14 16 16 16 16 17 18 18 18 17 16 15 15 16 18 18 19 14 4 -7 -15 -20 -23 -22 -11 8 19 24 26 27 29 29 28 22
4 4 4 4 4 5 7 9 11 13 14 15 16 18 20 21 22 23 23 24 22 20 16 13 10 8 7 7 6 5 4 4 6 8 10 14 16 18 19 18 18 17 17 17 16 16 16 18 23 28 32 33 25 13 -0 -11 -17 -18 -11 6 19 25 26 26 26 25 22 17 10
6 6 7 8 9 10 11 13 14 15 16 16 17 17 18 19 20 20 20 20 19 16 12 6 4 2 2 2 2 2 2 4 6 7 10 12 16 19 21 21 18 17 16 15 14 14 15 17 22 28 34 40 39 33 24 13 8 9 14 20 19 16 14 13 12 10 7 4 0
6 6 7 8 8 9 9 10 10 10 10 10 10 10 10 10 11 12 12 12 11 10 7 4 3 3 2 2 1 1 2 3 5 6 8 9 13 17 21 22 18 15 13 12 10 10 10 10 13 17 23 29 35 38 39 36 31 26 19 12 7 6 5 4 3 2 1 -0 -1
6 6 6 6 6 6 6 6 6 6 6 6 6 5 5 5 6 6 6 7 6 6 5 4 3 3 4 3 2 2 3 4 6 7 7 6 8 13 17 20 18 15 11 8 6 5 5 5 6 7 9 12 16 21 24 26 22 15 8 2 2 3 3 3 3 2 2 2 2
8 8 8 8 8 8 7 7 7 6 6 6 6 5 5 5 4 4 5 6 6 6 5 4 3 3 4 4 4 4 5 6 7 7 7 6 6 7 10 14 16 15 12 8 5 4 3 4 4 4 4 3 4 5 6 6 5 3 2 2 3 4 4 4 4 3 3 3 3
10 10 10 10 10 11 11 11 10 10 9 8 7 7 7 6 6 6 6 8 8 8 6 4 3 3 4 5 6 6 6 6 7 7 7 7 6 6 6 8 11 13 13 10 7 5 4 4 4 4 5 4 3 2 1 0 1 1 2 4 5 6 5 4 3 2 1 1 1
9 9 9 9 10 10 11 12 12 12 12 12 11 10 10 10 9 9 9 9 9 9 8 7 6 6 6 6 6 6 5 6 6 6 6 6 6 6 6 6 7 7 8 7 6 4 3 3 4 5 6 6 6 5 4 3 3 3 4 5 6 6 5 3 2 1 1 1 0
6 6 6 6 6 7 7 8 9 10 12 13 12 12 12 11 11 11 11 10 10 10 11 10 10 9 8 7 6 6 6 5 5 5 5 5 6 6 6 7 6 5 4 3 2 2 3 3 4 5 6 6 7 7 6 6 5 4 4 5 5 4 3 2 1 1 1 1 2
4 4 4 3 3 3 3 4 4 5 6 8 9 10 11 11 10 10 10 10 10 9 10 10 10 11 11 10 9 8 8 7 6 6 6 5 5 6 6 6 6 5 4 4 4 4 5 5 5 5 5 5 6 7 7 6 4 3 2 1 2 2 2 2 1 1 2 3 6
6 5 5 4 4 3 2 1 1 1 2 2 3 4 6 7 8 9 9 9 8 7 7 7 7 8 10 10 11 11 11 10 9 8 7 7 6 6 6 6 6 6 6 6 6 7 8 8 8 7 7 6 6 7 6 6 4 2 1 0 0 1 3 4 5 5 6 7 8
8 9 9 9 8 7 5 4 3 2 1 -0 -0 -0 1 2 4 5 6 7 7 7 8 8 9 9 9 10 11 11 11 11 11 11 10 9 8 7 7 6 6 6 6 6 7 8 9 10 10 9 9 9 8 8 7 6 5 3 2 2 3 4 6 7 8 9 10 10 11
8 10 11 12 13 13 12 11 9 7 5 3 2 1 0 0 0 1 2 4 6 7 8 7 7 8 9 10 10 10 10 10 11 11 11 11 10 9 8 7 6 6 6 6 6 7 8 8 9 10 10 10 9 8 8 9 9 8 7 7 7 8 9 9 10 11 12 12 11
6 8 11 13 14 15 15 15 14 13 12 10 8 6 5 4 3 2 1 1 2 2 2 3 4 5 6 6 6 6 7 7 8 9 10 10 10 9 9 8 7 6 6 6 6 6 7 8 9 10 9 9 9 10 10 10 11 11 11 10 10 10 11 11 11 11 11 10 9
5 8 11 13 14 16 16 16 16 16 16 15 14 12 11 9 8 6 5 3 2 2 2 2 2 2 2 2 3 3 4 4 5 6 7 8 8 9 9 9 8 8 7 7 6 7 7 8 9 10 11 11 11 11 11 11 11 11 11 11 11 11 11 11 10 10 9 8 8
6 8 10 12 14 15 15 15 16 16 16 16 16 15 15 14 13 12 11 10 8 6 5 4 3 2 2 2 2 2 2 2 3 4 4 6 7 8 9 9 9 9 9 8 8 8 8 8 9 10 10 11 11 11 11 11 11 11 11 11 11 10 10 10 9 8 8 8 8
7 8 9 11 12 13 13 14 14 14 14 15 15 16 16 16 16 15 15 14 13 12 10 9 8 7 6 5 4 4 3 3 3 3 4 4 6 7 8 9 9 10 10 9 9 9 9 9 9 10 10 11 11 11 11 11 10 10 10 10 10 9 9 8 8 8 8 8 8
8 8 9 10 11 11 12 12 12 12 12 13 13 14 14 15 16 16 16 16 16 15 15 14 13 12 11 10 8 7 6 6 5 5 4 4 5 6 7 8 9 10 10 10 10 10 10 10 10 10 11 11 11 11 10 10 10 10 10 9 9 9 8 8 8 8 8 8 8
8 8 9 9 10 10 11 11 11 11 11 11 12 12 13 13 14 14 15 15 16 16 16 16 16 16 15 14 13 12 10 9 8 7 7 6 6 6 7 8 9 10 10 11 10 10 10 10 10 11 11 11 11 10 10 10 9 9 9 8 8 8 8 8 8 8 9 9 9
9 9 9 9 10 10 10 10 10 10 10 10 11 11 11 12 12 12 13 13 14 14 15 16 16 16 17 17 16 16 15 13 12 11 10 9 8 8 8 9 10 10 10 11 11 11 11 11 11 11 11 11 11 10 10 9 9 9 8 8 8 8 8 8 9 9 9 9 9
11 11 10 10 11 11 11 10 10 10 10 10 11 11 11 11 11 11 12 12 12 13 13 14 15 16 16 17 18 18 18 17 16 15 13 12 11 10 10 10 10 11 11 11 12 12 12 12 12 12 12 12 11 10 10 9 9 9 9 9 9 9 9 9 9 9 9 8 8
11 12 12 13 13 12 12 11 10 10 10 10 11 11 11 11 11 11 11 11 11 11 12 12 13 14 15 16 17 18 19 19 18 17 16 15 14 13 12 11 11 11 12 12 12 12 12 12 12 12 12 12 11 10 10 9 9 9 9 9 9 9 9 9 9 9 8 8 7
11 12 13 14 14 14 13 12 11 11 10 10 11 11 11 11 11 11 11 11 11 11 11 11 12 13 14 15 16 17 18 19 19 18 18 16 15 14 13 12 12 12 12 12 12 12 12 12 12 12 12 12 11 10 10 10 10 10 10 10 9 9 9 9 8 8 8 7 7
12 12 13 14 14 14 14 13 12 11 11 11 11 11 11 12 11 11 11 11 11 11 11 11 12 12 13 14 15 16 17 18 19 19 18 17 16 15 14 12 12 12 12 12 12 12 12 11 11 12 12 12 11 10 10 10 10 10 10 10 9 9 8 8 8 8 7 7 6
14 13 13 13 13 13 13 13 13 12 11 11 11 11 11 11 11 11 12 12 12 12 12 11 12 12 12 13 14 15 16 17 18 18 18 17 16 16 14 13 13 13 13 12 12 11 11 11 11 11 11 11 11 10 10 10 10 10 10 9 9 8 8 7 7 7 7 6 6
Height
3082 3082 3082 3082 3082 3082 3082 3083 3084 3085 3086 3088 3089 3091 3091 3091 3091 3091 3092 3092 3093 3093 3093 3093 3093 3093 3095 3096 3096 3098 3100 3102 3105 3107 3108 3110 3111 3111 3110 3109 3108 3108 3108 3108 3109 3109 3109 3110 3109 3109 3110 3111 3112 3114 3115 3116 3116 3117 3117 3118 3118 3119 3120 3121 3121 3122 3123 3124 3125
3081 3081 3081 3081 3081 3081 3081 3081 3082 3083 3084 3085 3086 3086 3087 3087 3087 3087 3088 3089 3090 3091 3091 3090 3090 3090 3091 3091 3092 3094 3096 3100 3103 3105 3107 3110 3110 3109 3108 3106 3105 3105 3106 3106 3106 3107 3107 3107 3107 3107 3107 3108 3110 3111 3113 3114 3114 3115 3115 3116 3116 3117 3117 3118 3119 3120 3121 3121 3122
3080 3080 3080 3080 3080 3079 3080 3080 3081 3081 3082 3083 3083 3083 3083 3083 3083 3084 3085 3085 3086 3087 3088 3088 3088 3087 3087 3088 3089 3091 3094 3097 3100 3103 3106 3107 3107 3106 3105 3104 3104 3104 3104 3104 3105 3105 3105 3105 3105 3105 3106 3106 3108 3109 3111 3112 3112 3112 3113 3113 3114 3115 3115 3115 3116 3116 3118 3119 3120
3078 3078 3078 3078 3078 3078 3078 3079 3079 3080 3081 3081 3081 3081 3081 3082 3082 3082 3082 3083 3084 3085 3085 3086 3085 3085 3085 3086 3086 3088 3091 3094 3097 3100 3102 3103 3103 3102 3102 3101 3102 3102 3102 3102 3102 3102 3102 3103 3104 3104 3104 3104 3105 3106 3108 3110 3110 3111 3111 3111 3112 3112 3112 3112 3113 3114 3115 3116 3118
3076 3076 3076 3076 3076 3076 3077 3077 3078 3079 3079 3080 3080 3080 3081 3081 3081 3081 3081 3081 3081 3082 3083 3083 3083 3083 3083 3084 3084 3086 3088 3091 3094 3096 3098 3099 3099 3100 3100 3100 3100 3101 3100 3100 3100 3100 3100 3101 3102 3103 3102 3102 3102 3104 3106 3107 3108 3108 3109 3109 3110 3110 3110 3110 3110 3111 3113 3114 3116
3074 3074 3075 3075 3075 3075 3076 3076 3077 3078 3078 3079 3079 3079 3079 3080 3080 3080 3080 3080 3080 3081 3081 3081 3081 3081 3082 3082 3083 3084 3086 3089 3092 3094 3096 3097 3097 3097 3097 3097 3097 3098 3098 3098 3098 3098 3098 3099 3100 3101 3100 3100 3101 3102 3103 3105 3106 3106 3107 3107 3109 3109 3109 3108 3109 3110 3111 3112 3113
3073 3073 3073 3074 3074 3074 3074 3075 3076 3076 3076 3077 3077 3077 3077 3078 3079 3079 3079 3079 3079 3080 3080 3079 3079 3080 3080 3081 3082 3084 3086 3088 3091 3092 3093 3094 3095 3095 3095 3094 3094 3095 3096 3096 3097 3097 3097 3097 3098 3098 3098 3098 3099 3100 3101 3103 3104 3104 3105 3106 3107 3108 3107 3106 3107 3108 3110 3111 3111
3071 3072 3072 3073 3073 3073 3073 3074 3074 3075 3075 3075 3075 3075 3075 3076 3076 3076 3077 3077 3077 3078 3078 3078 3077 3078 3078 3079 3081 3083 3085 3086 3088 3089 3090 3090 3091 3091 3091 3091 3091 3091 3092 3094 3095 3096 3095 3096 3096 3096 3096 3097 3097 3098 3099 3100 3101 3102 3103 3104 3105 3105 3105 3105 3106 3107 3108 3109 3109
3070 3070 3071 3071 3071 3072 3072 3073 3073 3073 3073 3073 3073 3073 3073 3074 3075 3075 3075 3076 3076 3076 3076 3076 3076 3076 3076 3078 3080 3081 3083 3084 3086 3086 3087 3087 3088 3088 3089 3089 3089 3089 3090 3092 3093 3094 3094 3094 3095 3095 3095 3095 3095 3096 3096 3097 3098 3099 3100 3100 3101 3101 3102 3102 3103 3105 3106 3106 3106
3068 3068 3069 3069 3070 3071 3071 3071 3071 3071 3071 3071 3071 3071 3072 3073 3074 3074 3075 3075 3075 3076 3076 3075 3075 3075 3075 3077 3079 3080 3081 3082 3083 3084 3084 3085 3085 3086 3086 3087 3087 3088 3089 3090 3091 3091 3092 3092 3092 3092 3092 3093 3093 3094 3094 3094 3095 3096 3096 3096 3097 3098 3098 3100 3101 3102 3103 3104 3104
3067 3067 3067 3067 3068 3069 3069 3070 3070 3070 3070 3070 3070 3071 3071 3072 3073 3073 3073 3074 3075 3075 3075 3074 3074 3075 3076 3078 3079 3080 3081 3081 3081 3081 3081 3082 3083 3084 3085 3085 3086 3087 3088 3088 3088 3088 3088 3089 3089 3090 3090 3091 3091 3091 3092 3092 3093 3094 3094 3094 3095 3095 3096 3097 3098 3099 3101 3101 3102
3066 3065 3065 3066 3067 3067 3067 3067 3068 3068 3069 3069 3069 3070 3070 3071 3071 3071 3071 3071 3071 3071 3071 3071 3073 3074 3076 3077 3079 3079 3080 3080 3080 3080 3080 3081 3081 3082 3083 3083 3084 3085 3085 3085 3085 3085 3085 3086 3086 3087 3088 3088 3089 3089 3090 3091 3092 3092 3093 3093 3093 3093 3094 3095 3096 3098 3099 3100 3100
3063 3063 3063 3064 3065 3065 3066 3066 3066 3067 3068 3067 3068 3068 3069 3069 3069 3069 3070 3070 3070 3070 3071 3071 3071 3072 3074 3075 3076 3077 3078 3079 3079 3079 3079 3080 3080 3081 3081 3081 3082 3082 3083 3083 3083 3083 3083 3083 3084 3085 3085 3086 3086 3087 3088 3089 3090 3091 3091 3092 3093 3093 3093 3094 3095 3097 3097 3098 3098
3062 3061 3061 3062 3062 3063 3064 3064 3065 3066 3066 3066 3066 3067 3067 3068 3068 3068 3069 3070 3070 3071 3071 3071 3072 3073 3073 3074 3075 3075 3076 3076 3077 3077 3078 3078 3079 3079 3080 3080 3080 3081 3081 3080 3081 3081 3081 3081 3082 3082 3083 3084 3085 3086 3087 3087 3088 3089 3090 3090 3091 3092 3092 3093 3094 3094 3095 3095 3096
3060 3061 3061 3060 3060 3061 3061 3062 3064 3065 3066 3066 3066 3066 3066 3066 3066 3067 3068 3069 3069 3069 3069 3070 3070 3071 3071 3072 3072 3073 3074 3074 3075 3075 3076 3076 3076 3077 3077 3078 3078 3078 3078 3078 3078 3078 3079 3080 3080 3081 3081 3082 3083 3085 3086 3086 3086 3086 3086 3087 3088 3089 3090 3091 3091 3091 3092 3093 3095
3059 3060 3060 3060 3059 3059 3060 3061 3061 3062 3063 3063 3063 3063 3063 3064 3064 3065 3066 3067 3067 3067 3067 3067 3067 3068 3069 3070 3071 3071 3072 3073 3073 3074 3074 3074 3074 3075 3075 3075 3076 3076 3076 3076 3076 3076 3076 3077 3078 3079 3080 3081 3082 3083 3083 3083 3084 3084 3085 3086 3086 3088 3089 3089 3090 3090 3091 3092 3093
3058 3059 3059 3060 3059 3059 3059 3059 3060 3060 3061 3061 3061 3061 3061 3062 3062 3063 3064 3065 3065 3066 3066 3066 3066 3066 3067 3068 3069 3070 3071 3071 3072 3072 3072 3072 3072 3072 3073 3073 3073 3074 3074 3074 3074 3074 3075 3076 3077 3078 3079 3079 3080 3080 3080 3081 3081 3082 3083 3084 3085 3086 3086 3087 3088 3088 3089 3090 3091
3057 3058 3058 3058 3058 3058 3058 3059 3059 3059 3059 3059 3060 3060 3060 3061 3061 3061 3062 3063 3064 3064 3065 3065 3065 3066 3066 3066 3067 3068 3069 3070 3071 3071 3071 3071 3071 3071 3071 3071 3071 3071 3072 3072 3072 3072 3073 3074 3075 3076 3076 3077 3078 3078 3078 3079 3079 3080 3081 3082 3083 3084 3084 3085 3085 3086 3087 3088 3089
3056 3056 3056 3057 3057 3057 3057 3058 3058 3058 3058 3058 3059 3059 3059 3060 3060 3061 3061 3062 3062 3063 3063 3064 3064 3064 3065 3066 3066 3067 3068 3068 3069 3069 3069 3069 3069 3069 3069 3069 3070 3070 3070 3070 3071 3071 3072 3072 3073 3074 3074 3075 3076 3076 3077 3077 3078 3079 3081 3081 3082 3082 3082 3083 3084 3084 3085 3086 3087
3054 3055 3055 3055 3055 3055 3056 3056 3056 3057 3057 3057 3058 3058 3058 3058 3059 3060 3060 3061 3061 3061 3062 3062 3063 3063 3064 3064 3065 3066 3066 3067 3067 3067 3067 3067 3067 3067 3067 3068 3068 3068 3068 3069 3069 3070 3070 3071 3071 3072 3072 3073 3073 3074 3075 3076 3077 3078 3079 3080 3080 3081 3081 3081 3082 3083 3083 3084 3085
3052 3053 3053 3053 3053 3054 3054 3054 3055 3055 3056 3056 3056 3056 3057 3057 3058 3058 3059 3059 3060 3060 3060 3061 3061 3061 3062 3062 3063 3063 3064 3065 3065 3065 3066 3066 3066 3066 3066 3066 3066 3067 3067 3067 3068 3068 3069 3069 3070 3071 3071 3071 3071 3072 3073 3074 3075 3076 3077 3078 3078 3079 3080 3080 3081 3081 3082 3083 3083
3051 3051 3051 3051 3052 3052 3052 3053 3053 3053 3054 3054 3055 3055 3056 3056 3056 3057 3057 3058 3058 3058 3058 3059 3059 3060 3060 3061 3061 3061 3062 3062 3063 3063 3063 3064 3064 3064 3064 3065 3065 3066 3066 3066 3066 3066 3067 3067 3068 3069 3069 3070 3070 3071 3071 3072 3073 3074 3075 3076 3076 3077 3078 3078 3079 3079 3080 3081 3081
3049 3049 3050 3050 3050 3050 3051 3051 3051 3051 3052 3052 3053 3053 3054 3054 3055 3056 3056 3056 3056 3056 3056 3057 3057 3058 3058 3059 3059 3060 3060 3060 3061 3061 3061 3061 3062 3062 3062 3063 3064 3064 3064 3064 3065 3065 3065 3066 3066 3067 3067 3068 3069 3069 3070 3071 3071 3072 3073 3074 3075 3075 3076 3076 3076 3077 3078 3078 3079
3048 3048 3048 3048 3048 3049 3049 3049 3050 3050 3050 3051 3051 3051 3052 3052 3053 3054 3054 3054 3054 3054 3055 3055 3056 3056 3056 3057 3057 3057 3058 3058 3058 3059 3059 3059 3060 3060 3061 3061 3061 3062 3062 3063 3063 3063 3063 3064 3064 3065 3066 3066 3067 3067 3068 3069 3070 3070 3071 3072 3072 3073 3073 3074 3075 3075 3076 3076 3076
3046 3046 3046 3046 3047 3047 3047 3047 3048 3048 3048 3049 3049 3050 3050 3050 3051 3051 3052 3052 3052 3053 3053 3053 3054 3054 3055 3055 3055 3055 3056 3056 3056 3056 3057 3057 3057 3058 3058 3059 3059 3060 3060 3061 3061 3061 3062 3062 3062 3063 3063 3064 3065 3065 3066 3067 3067 3068 3069 3069 3070 3071 3071 3072 3072 3073 3073 3073 3074
3045 3045 3045 3045 3045 3045 3045 3045 3046 3046 3046 3047 3047 3047 3048 3048 3049 3049 3049 3050 3050 3051 3051 3051 3052 3052 3052 3053 3053 3053 3053 3054 3054 3054 3055 3055 3055 3056 3056 3056 3057 3057 3058 3059 3059 3060 3060 3060 3061 3061 3062 3062 3063 3063 3064 3064 3065 3066 3066 3067 3067 3068 3069 3069 3070 3071 3071 3071 3072
3043 3043 3043 3043 3043 3043 3043 3043 3043 3044 3044 3045 3045 3045 3046 3046 3046 3047 3047 3047 3048 3049 3049 3049 3050 3050 3050 3051 3051 3051 3051 3051 3052 3052 3052 3053 3053 3054 3054 3055 3055 3055 3056 3056 3057 3057 3058 3058 3059 3059 3060 3060 3061 3061 3061 3062 3063 3064 3064 3065 3065 3066 3066 3067 3067 3068 3068 3069 3069
3041 3041 3041 3041 3041 3041 3041 3041 3041 3041 3041 3042 3042 3043 3043 3044 3044 3044 3045 3045 3046 3046 3046 3047 3047 3048 3048 3048 3048 3049 3049 3049 3050 3050 3050 3051 3051 3051 3052 3052 3053 3053 3053 3054 3054 3055 3055 3056 3056 3056 3057 3057 3058 3059 3060 3061 3061 3061 3061 3062 3063 3063 3063 3064 3064 3065 3066 3066 3066
3038 3038 3038 3038 3038 3038 3038 3038 3038 3039 3039 3039 3040 3040 3041 3041 3041 3041 3042 3042 3043 3043 3044 3044 3045 3045 3046 3046 3046 3046 3047 3047 3047 3047 3048 3048 3048 3048 3049 3050 3050 3051 3051 3051 3052 3052 3052 3053 3053 3054 3054 3055 3056 3056 3057 3058 3058 3059 3059 3059 3060 3060 3061 3061 3062 3062 3063 3063 3064
3036 3036 3036 3036 3036 3036 3036 3036 3036 3036 3036 3036 3037 3037 3037 3038 3038 3039 3039 3040 3040 3041 3041 3041 3042 3042 3043 3043 3043 3044 3044 3045 3045 3045 3045 3045 3046 3046 3046 3047 3047 3048 3048 3049 3049 3049 3050 3050 3051 3051 3052 3052 3053 3054 3054 3055 3055 3056 3056 3056 3057 3058 3058 3059 3059 3060 3060 3061 3061
3033 3033 3033 3033 3033 3033 3033 3033 3033 3033 3033 3033 3034 3034 3034 3035 3035 3036 3036 3036 3037 3038 3038 3039 3039 3039 3040 3040 3041 3041 3042 3042 3042 3042 3043 3043 3043 3044 3044 3045 3045 3045 3045 3046 3046 3046 3047 3048 3048 3049 3049 3050 3050 3051 3051 3052 3052 3053 3053 3054 3055 3055 3056 3056 3057 3057 3058 3058 3059
3031 3030 3030 3030 3030 3030 3030 3030 3030 3030 3030 3030 3030 3031 3031 3031 3032 3032 3033 3033 3034 3034 3035 3036 3036 3036 3037 3038 3038 3039 3039 3039 3040 3040 3040 3040 3041 3041 3041 3042 3042 3042 3043 3043 3043 3044 3044 3045 3046 3046 3046 3047 3048 3048 3049 3049 3050 3050 3051 3051 3052 3053 3053 3054 3055 3055 3056 3056 3056
3027 3027 3027 3027 3027 3027 3027 3027 3027 3027 3027 3027 3027 3027 3028 3028 3029 3029 3030 3030 3031 3031 3031 3032 3032 3033 3034 3034 3035 3036 3036 3036 3037 3037 3037 3038 3038 3038 3039 3039 3039 3040 3040 3041 3041 3041 3042 3042 3043 3043 3044 3045 3045 3046 3046 3047 3047 3048 3049 3049 3050 3051 3051 3052 3052 3053 3053 3054 3054
3025 3025 3025 3025 3024 3024 3024 3024 3024 3024 3024 3024 3025 3025 3025 3025 3026 3026 3026 3027 3027 3027 3028 3028 3029 3029 3030 3031 3031 3032 3032 3033 3033 3034 3034 3035 3035 3036 3036 3036 3036 3037 3037 3038 3038 3039 3039 3040 3040 3041 3041 3042 3043 3043 3044 3044 3045 3046 3046 3047 3048 3048 3049 3050 3050 3051 3051 3051 3052
3021 3021 3021 3021 3021 3021 3021 3021 3021 3021 3021 3022 3022 3022 3022 3022 3023 3023 3023 3023 3024 3024 3025 3025 3025 3026 3026 3027 3028 3028 3029 3029 3030 3031 3031 3031 3032 3032 3033 3033 3034 3034 3035 3035 3036 3036 3036 3037 3038 3038 3039 3040 3040 3041 3041 3041 3042 3043 3044 3045 3045 3046 3046 3047 3048 3048 3049 3049 3049
3018 3018 3018 3018 3019 3019 3019 3018 3018 3019 3019 3019 3019 3019 3019 3019 3020 3020 3020 3020 3021 3021 3021 3021 3022 3022 3023 3023 3024 3025 3025 3026 3026 3027 3028 3028 3029 3029 3030 3030 3031 3031 3032 3033 3033 3033 3034 3035 3035 3036 3036 3037 3038 3038 3039 3039 3040 3041 3041 3042 3043 3043 3044 3045 3045 3046 3046 3046 3047
3015 3015 3015 3015 3016 3016 3016 3016 3016 3016 3016 3016 3016 3016 3016 3016 3016 3016 3017 3017 3017 3017 3018 3018 3019 3019 3019 3020 3020 3021 3022 3022 3023 3023 3024 3025 3025 3026 3026 3027 3028 3029 3029 3030 3030 3031 3031 3032 3032 3033 3034 3035 3035 3036 3036 3036 3037 3038 3039 3040 3040 3041 3041 3042 3043 3043 3043 3044 3044
3012 3012 3012 3012 3012 3012 3012 3012 3012 3012 3012 3012 3013 3013 3013 3013 3013 3013 3013 3014 3014 3014 3014 3015 3015 3016 3016 3016 3017 3018 3018 3019 3019 3020 3021 3021 3022 3023 3023 3024 3025 3026 3026 3027 3027 3028 3029 3029 3030 3031 3031 3032 3032 3033 3033 3034 3035 3036 3036 3037 3038 3038 3039 3040 3040 3041 3041 3041 3041
3009 3009 3009 3009 3009 3009 3009 3009 3009 3009 3009 3009 3010 3010 3010 3010 3010 3010 3010 3011 3011 3011 3011 3011 3012 3012 3013 3013 3014 3014 3015 3015 3016 3016 3017 3018 3019 3019 3020 3021 3021 3022 3023 3024 3025 3025 3026 3026 3027 3028 3029 3029 3030 3030 3031 3032 3032 3033 3034 3035 3035 3036 3036 3037 3038 3038 3039 3039 3039
3006 3006 3006 3006 3006 3006 3006 3006 3006 3006 3006 3006 3006 3006 3006 3006 3006 3007 3007 3007 3007 3008 3008 3008 3009 3009 3009 3010 3010 3011 3011 3012 3013 3013 3014 3015 3015 3016 3017 3018 3018 3019 3021 3021 3022 3022 3023 3024 3025 3025 3026 3027 3027 3028 3029 3029 3030 3031 3031 3032 3033 3033 3034 3035 3035 3036 3036 3036 3037
3003 3003 3003 3002 3002 3002 3002 3002 3002 3002 3003 3003 3003 3003 3003 3003 3003 3004 3004 3004 3004 3005 3005 3005 3006 3006 3006 3006 3007 3007 3008 3009 3009 3010 3011 3011 3012 3013 3014 3015 3016 3016 3017 3018 3019 3020 3020 3021 3022 3022 3023 3024 3025 3025 3026 3027 3027 3028 3029 3030 3030 3031 3031 3032 3032 3033 3033 3034 3034